World > North America > United States > Illinois > Brimfield  

Brimfield, IL Hourly Weather Updates

Feedback E-mail the Weather

Quick Clicks

Brimfield, IL Weather Maps

°F °C°F °C
Brimfield Weather Map
UTC Time: 4/13/2024, 00:42
Your Time:

Brimfield, IL Regional Weather

Expires:202404130100;;642079
ASUS43 KLOT 130011
RWRIL 

ILLINOIS REGIONAL WEATHER ROUNDUP
NATIONAL WEATHER SERVICE CHICAGO/ROMEOVILLE IL
700 PM CDT FRI APR 12 2024

NOTE: "FAIR" INDICATES FEW OR NO CLOUDS BELOW 12,000 FEET WITH NO
SIGNIFICANT WEATHER AND/OR OBSTRUCTIONS TO VISIBILITY.

* THESE STATIONS ARE NOT UNDER NWS QUALITY CONTROL. THEY ALSO MAY NOT
  REPORT WEATHER SUCH AS PRECIPITATION OR FOG.


ILZ028>032-037-038-041>044-048-051>054-059>061-130100-
CENTRAL ILLINOIS
  
CITY           SKY/WX    TMP DP  RH WIND       PRES   REMARKS
PONTIAC        PTCLDY    59  34  38 NW16G23   29.97R TC  15           
BLOOMINGTON    PTCLDY    60  33  36 NW22G30   29.99R TC  16           
DECATUR        CLEAR     63  33  32 NW16G31   30.00R TC  17           
PEORIA         CLEAR     62  31  31 NW14G26   30.00R TC  17           
6HR MIN TEMP:  61; 6HR MAX TEMP:  65;                                

LACON*         PTCLDY    60  32  34 NW15G22   29.98R TC  16           
LINCOLN*       CLEAR     63  31  30 NW12G22   30.01R TC  17           
SPRINGFIELD    CLEAR     64  29  26 NW20G29   30.02R TC  18           
6HR MIN TEMP:  63; 6HR MAX TEMP:  67;                                

TAYLORVILLE    CLEAR     63  34  34 MISG      30.03R TC  17           
$$


SKY/WX - Weather  TMP - Temperature  DP - Dew Point  RH - Humidity
WIND - Wind Direction/Speed PRES - Barometric Pressure VSB - Visibility
WCI - Wind Chill Index E13G22 Wind - East Wind 13 mph/Gusts of 22 mph

Trending Headlines

Trending Entertainment Headlines

Brimfield Radar Loop

Use the map search tool if you want to place a location marker on the radar map...

Brimfield Quick Facts

National Two Day Weather Forecast


E-mail the Brimfield Weather Forecast

Voice your opinion or tell us about page issues...